Time,TemperatureF,DewpointF,PressureIn,WindDirection,WindDirectionDegrees,WindSpeedMPH,WindSpeedGustMPH,Humidity,HourlyPrecipIn,Conditions,Clouds,dailyrainin,SolarRadiationWatts/m^2,SoftwareType,DateUTC
2013-01-20 00:02:00,70.0,54.0,-100.00,North,353,5.0,15.0,56,0.00,,,0.00,0.000000,,2013-01-20 10:02:00,
2013-01-20 00:12:00,70.0,54.0,-100.00,North,353,5.0,15.0,56,0.00,,,0.00,0.000000,,2013-01-20 10:12:00,
2013-01-20 00:22:00,70.0,54.0,-100.00,North,353,5.0,15.0,56,0.00,,,0.00,0.000000,,2013-01-20 10:22:00,
2013-01-20 00:32:00,70.0,54.0,-100.00,North,353,5.0,15.0,56,0.00,,,0.00,0.000000,,2013-01-20 10:32:00,
2013-01-20 00:52:00,69.0,50.0,-100.00,ENE,60,5.0,17.0,51,0.00,,,0.00,1.000000,,2013-01-20 10:52:00,
2013-01-20 01:02:00,69.0,50.0,-100.00,ENE,60,5.0,17.0,51,0.00,,,0.00,1.000000,,2013-01-20 11:02:00,
2013-01-20 01:12:00,69.0,50.0,-100.00,ENE,60,5.0,17.0,51,0.00,,,0.00,1.000000,,2013-01-20 11:12:00,
2013-01-20 01:22:00,69.0,50.0,-100.00,ENE,60,5.0,17.0,51,0.00,,,0.00,1.000000,,2013-01-20 11:22:00,
2013-01-20 01:32:00,69.0,50.0,-100.00,ENE,60,5.0,17.0,51,0.00,,,0.00,1.000000,,2013-01-20 11:32:00,
2013-01-20 01:53:00,69.0,52.0,-100.00,NNW,346,8.0,23.0,55,0.00,,,0.00,1.000000,,2013-01-20 11:53:00,
2013-01-20 02:03:00,69.0,52.0,-100.00,NNW,346,8.0,23.0,55,0.00,,,0.00,1.000000,,2013-01-20 12:03:00,
2013-01-20 02:12:00,69.0,52.0,-100.00,NNW,346,8.0,23.0,55,0.00,,,0.00,1.000000,,2013-01-20 12:12:00,
2013-01-20 02:22:00,69.0,52.0,-100.00,NNW,346,8.0,23.0,55,0.00,,,0.00,1.000000,,2013-01-20 12:22:00,
2013-01-20 02:32:00,69.0,52.0,-100.00,NNW,346,8.0,23.0,55,0.00,,,0.00,1.000000,,2013-01-20 12:32:00,
2013-01-20 02:53:00,68.0,53.0,-100.00,NNW,346,5.0,20.0,58,0.00,,,0.00,1.000000,,2013-01-20 12:53:00,
2013-01-20 03:02:00,68.0,53.0,-100.00,NNW,346,5.0,20.0,58,0.00,,,0.00,1.000000,,2013-01-20 13:02:00,
2013-01-20 03:12:00,68.0,53.0,-100.00,NNW,346,5.0,20.0,58,0.00,,,0.00,1.000000,,2013-01-20 13:12:00,
2013-01-20 03:23:00,68.0,53.0,-100.00,NNW,346,5.0,20.0,58,0.00,,,0.00,1.000000,,2013-01-20 13:23:00,
2013-01-20 03:32:00,68.0,53.0,-100.00,NNW,346,5.0,20.0,58,0.00,,,0.00,1.000000,,2013-01-20 13:32:00,
2013-01-20 03:53:00,68.0,53.0,-100.00,SSE,148,3.0,10.0,58,0.00,,,0.00,0.000000,,2013-01-20 13:53:00,
2013-01-20 04:02:00,68.0,53.0,-100.00,SSE,148,3.0,10.0,58,0.00,,,0.00,0.000000,,2013-01-20 14:02:00,
2013-01-20 04:12:00,68.0,53.0,-100.00,SSE,148,3.0,10.0,58,0.00,,,0.00,0.000000,,2013-01-20 14:12:00,
2013-01-20 04:22:00,68.0,53.0,-100.00,SSE,148,3.0,10.0,58,0.00,,,0.00,0.000000,,2013-01-20 14:22:00,
2013-01-20 04:32:00,68.0,53.0,-100.00,SSE,148,3.0,10.0,58,0.00,,,0.00,0.000000,,2013-01-20 14:32:00,
2013-01-20 04:53:00,71.0,55.0,-100.00,NNW,342,8.0,21.0,57,0.00,,,0.00,1.000000,,2013-01-20 14:53:00,
2013-01-20 05:03:00,71.0,55.0,-100.00,NNW,342,8.0,21.0,57,0.00,,,0.00,1.000000,,2013-01-20 15:03:00,
2013-01-20 05:12:00,71.0,55.0,-100.00,NNW,342,8.0,21.0,57,0.00,,,0.00,1.000000,,2013-01-20 15:12:00,
2013-01-20 05:22:00,71.0,55.0,-100.00,NNW,342,8.0,21.0,57,0.00,,,0.00,1.000000,,2013-01-20 15:22:00,
2013-01-20 05:32:00,71.0,55.0,-100.00,NNW,342,8.0,21.0,57,0.00,,,0.00,1.000000,,2013-01-20 15:32:00,
2013-01-20 06:02:00,69.0,54.0,-100.00,North,353,9.0,18.0,59,0.00,,,0.00,1.000000,,2013-01-20 16:02:00,
2013-01-20 06:12:00,69.0,54.0,-100.00,North,353,9.0,18.0,59,0.00,,,0.00,1.000000,,2013-01-20 16:12:00,
2013-01-20 06:22:00,69.0,54.0,-100.00,North,353,9.0,18.0,59,0.00,,,0.00,1.000000,,2013-01-20 16:22:00,
2013-01-20 06:32:00,69.0,54.0,-100.00,North,353,9.0,18.0,59,0.00,,,0.00,1.000000,,2013-01-20 16:32:00,
2013-01-20 07:02:00,69.0,53.0,-100.00,North,352,7.0,20.0,56,0.00,,,0.00,1.000000,,2013-01-20 17:02:00,
2013-01-20 07:12:00,69.0,53.0,-100.00,North,352,7.0,20.0,56,0.00,,,0.00,1.000000,,2013-01-20 17:12:00,
2013-01-20 07:22:00,69.0,53.0,-100.00,North,352,7.0,20.0,56,0.00,,,0.00,1.000000,,2013-01-20 17:22:00,
2013-01-20 07:32:00,69.0,53.0,-100.00,North,352,7.0,20.0,56,0.00,,,0.00,1.000000,,2013-01-20 17:32:00,
2013-01-20 08:02:00,69.0,55.0,-100.00,North,349,9.0,18.0,62,0.00,,,0.00,11.000000,,2013-01-20 18:02:00,
2013-01-20 08:12:00,69.0,55.0,-100.00,North,349,9.0,18.0,62,0.00,,,0.00,11.000000,,2013-01-20 18:12:00,
2013-01-20 08:23:00,69.0,55.0,-100.00,North,349,9.0,18.0,62,0.00,,,0.00,11.000000,,2013-01-20 18:23:00,
2013-01-20 08:33:00,69.0,55.0,-100.00,North,349,9.0,18.0,62,0.00,,,0.00,11.000000,,2013-01-20 18:33:00,
2013-01-20 08:53:00,74.0,55.0,-100.00,North,350,9.0,19.0,52,0.00,,,0.00,191.000000,,2013-01-20 18:53:00,
2013-01-20 09:02:00,74.0,55.0,-100.00,North,350,9.0,19.0,52,0.00,,,0.00,191.000000,,2013-01-20 19:02:00,
2013-01-20 09:12:00,74.0,55.0,-100.00,North,350,9.0,19.0,52,0.00,,,0.00,191.000000,,2013-01-20 19:12:00,
2013-01-20 09:22:00,74.0,55.0,-100.00,North,350,9.0,19.0,52,0.00,,,0.00,191.000000,,2013-01-20 19:22:00,
2013-01-20 09:33:00,74.0,55.0,-100.00,North,350,9.0,19.0,52,0.00,,,0.00,191.000000,,2013-01-20 19:33:00,
2013-01-20 09:53:00,76.0,54.0,-100.00,North,359,7.0,20.0,47,0.00,,,0.00,399.000000,,2013-01-20 19:53:00,
2013-01-20 10:02:00,76.0,54.0,-100.00,North,359,7.0,20.0,47,0.00,,,0.00,399.000000,,2013-01-20 20:02:00,
2013-01-20 10:12:00,76.0,54.0,-100.00,North,359,7.0,20.0,47,0.00,,,0.00,399.000000,,2013-01-20 20:12:00,
2013-01-20 10:22:00,76.0,54.0,-100.00,North,359,7.0,20.0,47,0.00,,,0.00,399.000000,,2013-01-20 20:22:00,
2013-01-20 10:33:00,76.0,54.0,-100.00,North,359,7.0,20.0,47,0.00,,,0.00,399.000000,,2013-01-20 20:33:00,
2013-01-20 10:53:00,79.0,53.0,-100.00,North,352,8.0,20.0,40,0.00,,,0.00,603.000000,,2013-01-20 20:53:00,
2013-01-20 11:03:00,79.0,53.0,-100.00,North,352,8.0,20.0,40,0.00,,,0.00,603.000000,,2013-01-20 21:03:00,
2013-01-20 11:13:00,79.0,53.0,-100.00,North,352,8.0,20.0,40,0.00,,,0.00,603.000000,,2013-01-20 21:13:00,
2013-01-20 11:22:00,79.0,53.0,-100.00,North,352,8.0,20.0,40,0.00,,,0.00,603.000000,,2013-01-20 21:22:00,
2013-01-20 11:33:00,79.0,53.0,-100.00,North,352,8.0,20.0,40,0.00,,,0.00,603.000000,,2013-01-20 21:33:00,
2013-01-20 12:03:00,82.0,53.0,-100.00,North,358,9.0,20.0,37,0.00,,,0.00,736.000000,,2013-01-20 22:03:00,
2013-01-20 12:12:00,82.0,53.0,-100.00,North,358,9.0,20.0,37,0.00,,,0.00,736.000000,,2013-01-20 22:12:00,
2013-01-20 12:22:00,82.0,53.0,-100.00,North,358,9.0,20.0,37,0.00,,,0.00,736.000000,,2013-01-20 22:22:00,
2013-01-20 12:32:00,82.0,53.0,-100.00,North,358,9.0,20.0,37,0.00,,,0.00,736.000000,,2013-01-20 22:32:00,
2013-01-20 12:53:00,80.0,46.0,-100.00,North,351,8.0,22.0,30,0.00,,,0.00,820.000000,,2013-01-20 22:53:00,
2013-01-20 13:03:00,80.0,46.0,-100.00,North,351,8.0,22.0,30,0.00,,,0.00,820.000000,,2013-01-20 23:03:00,
2013-01-20 13:12:00,80.0,46.0,-100.00,North,351,8.0,22.0,30,0.00,,,0.00,820.000000,,2013-01-20 23:12:00,
2013-01-20 13:22:00,80.0,46.0,-100.00,North,351,8.0,22.0,30,0.00,,,0.00,820.000000,,2013-01-20 23:22:00,
2013-01-20 13:33:00,80.0,46.0,-100.00,North,351,8.0,22.0,30,0.00,,,0.00,820.000000,,2013-01-20 23:33:00,
2013-01-20 14:03:00,84.0,46.0,-100.00,North,354,7.0,22.0,27,0.00,,,0.00,830.000000,,2013-01-21 00:03:00,
2013-01-20 14:13:00,84.0,46.0,-100.00,North,354,7.0,22.0,27,0.00,,,0.00,830.000000,,2013-01-21 00:13:00,
2013-01-20 14:22:00,84.0,46.0,-100.00,North,354,7.0,22.0,27,0.00,,,0.00,830.000000,,2013-01-21 00:22:00,
2013-01-20 14:32:00,84.0,46.0,-100.00,North,354,7.0,22.0,27,0.00,,,0.00,830.000000,,2013-01-21 00:32:00,
2013-01-20 14:53:00,80.0,47.0,-100.00,North,4,7.0,19.0,31,0.00,,,0.00,754.000000,,2013-01-21 00:53:00,
2013-01-20 15:03:00,80.0,47.0,-100.00,North,4,7.0,19.0,31,0.00,,,0.00,754.000000,,2013-01-21 01:03:00,
2013-01-20 15:12:00,80.0,47.0,-100.00,North,4,7.0,19.0,31,0.00,,,0.00,754.000000,,2013-01-21 01:12:00,
2013-01-20 15:22:00,80.0,47.0,-100.00,North,4,7.0,19.0,31,0.00,,,0.00,754.000000,,2013-01-21 01:22:00,
2013-01-20 15:32:00,80.0,47.0,-100.00,North,4,7.0,19.0,31,0.00,,,0.00,754.000000,,2013-01-21 01:32:00,
2013-01-20 16:03:00,80.0,39.0,-100.00,North,0,6.0,17.0,23,0.00,,,0.00,630.000000,,2013-01-21 02:03:00,
2013-01-20 16:12:00,80.0,39.0,-100.00,North,0,6.0,17.0,23,0.00,,,0.00,630.000000,,2013-01-21 02:12:00,
2013-01-20 16:22:00,80.0,39.0,-100.00,North,0,6.0,17.0,23,0.00,,,0.00,630.000000,,2013-01-21 02:22:00,
2013-01-20 16:32:00,80.0,39.0,-100.00,North,0,6.0,17.0,23,0.00,,,0.00,630.000000,,2013-01-21 02:32:00,
2013-01-20 16:53:00,81.0,44.0,-100.00,North,2,5.0,15.0,27,0.00,,,0.00,443.000000,,2013-01-21 02:53:00,
2013-01-20 17:02:00,81.0,44.0,-100.00,North,2,5.0,15.0,27,0.00,,,0.00,443.000000,,2013-01-21 03:02:00,
2013-01-20 17:12:00,81.0,44.0,-100.00,North,2,5.0,15.0,27,0.00,,,0.00,443.000000,,2013-01-21 03:12:00,
2013-01-20 17:23:00,81.0,44.0,-100.00,North,2,5.0,15.0,27,0.00,,,0.00,443.000000,,2013-01-21 03:23:00,
2013-01-20 17:32:00,81.0,44.0,-100.00,North,2,5.0,15.0,27,0.00,,,0.00,443.000000,,2013-01-21 03:32:00,
2013-01-20 17:53:00,76.0,50.0,-100.00,North,349,5.0,14.0,40,0.00,,,0.00,223.000000,,2013-01-21 03:53:00,
2013-01-20 18:02:00,76.0,50.0,-100.00,North,349,5.0,14.0,40,0.00,,,0.00,223.000000,,2013-01-21 04:02:00,
2013-01-20 18:12:00,76.0,50.0,-100.00,North,349,5.0,14.0,40,0.00,,,0.00,223.000000,,2013-01-21 04:12:00,
2013-01-20 18:22:00,76.0,50.0,-100.00,North,349,5.0,14.0,40,0.00,,,0.00,223.000000,,2013-01-21 04:22:00,
2013-01-20 18:32:00,76.0,50.0,-100.00,North,349,5.0,14.0,40,0.00,,,0.00,223.000000,,2013-01-21 04:32:00,
2013-01-20 18:53:00,72.0,53.0,-100.00,North,2,8.0,19.0,52,0.00,,,0.00,18.000000,,2013-01-21 04:53:00,
2013-01-20 19:03:00,72.0,53.0,-100.00,North,2,8.0,19.0,52,0.00,,,0.00,18.000000,,2013-01-21 05:03:00,
2013-01-20 19:12:00,72.0,53.0,-100.00,North,2,8.0,19.0,52,0.00,,,0.00,18.000000,,2013-01-21 05:12:00,
2013-01-20 19:22:00,72.0,53.0,-100.00,North,2,8.0,19.0,52,0.00,,,0.00,18.000000,,2013-01-21 05:22:00,
2013-01-20 19:33:00,72.0,53.0,-100.00,North,2,8.0,19.0,52,0.00,,,0.00,18.000000,,2013-01-21 05:33:00,
2013-01-20 19:53:00,71.0,56.0,-100.00,North,359,8.0,18.0,59,0.00,,,0.00,1.000000,,2013-01-21 05:53:00,
2013-01-20 20:02:00,71.0,56.0,-100.00,North,359,8.0,18.0,59,0.00,,,0.00,1.000000,,2013-01-21 06:02:00,
2013-01-20 20:12:00,71.0,56.0,-100.00,North,359,8.0,18.0,59,0.00,,,0.00,1.000000,,2013-01-21 06:12:00,
2013-01-20 20:23:00,71.0,56.0,-100.00,North,359,8.0,18.0,59,0.00,,,0.00,1.000000,,2013-01-21 06:23:00,
2013-01-20 20:32:00,71.0,56.0,-100.00,North,359,8.0,18.0,59,0.00,,,0.00,1.000000,,2013-01-21 06:32:00,
2013-01-20 20:53:00,70.0,56.0,-100.00,NNW,334,11.0,22.0,61,0.00,,,0.00,0.000000,,2013-01-21 06:53:00,
2013-01-20 21:03:00,70.0,56.0,-100.00,NNW,334,11.0,22.0,61,0.00,,,0.00,0.000000,,2013-01-21 07:03:00,
2013-01-20 21:12:00,70.0,56.0,-100.00,NNW,334,11.0,22.0,61,0.00,,,0.00,0.000000,,2013-01-21 07:12:00,
2013-01-20 21:22:00,70.0,56.0,-100.00,NNW,334,11.0,22.0,61,0.00,,,0.00,0.000000,,2013-01-21 07:22:00,
2013-01-20 21:32:00,70.0,56.0,-100.00,NNW,334,11.0,22.0,61,0.00,,,0.00,0.000000,,2013-01-21 07:32:00,
2013-01-20 21:53:00,68.0,54.0,-100.00,North,350,7.0,22.0,60,0.00,,,-99.99,0.000000,,2013-01-21 07:53:00,
2013-01-20 22:02:00,68.0,54.0,-100.00,North,350,7.0,22.0,60,0.00,,,-99.99,0.000000,,2013-01-21 08:02:00,
2013-01-20 22:13:00,68.0,54.0,-100.00,North,350,7.0,22.0,60,0.00,,,-99.99,0.000000,,2013-01-21 08:13:00,
2013-01-20 22:22:00,68.0,54.0,-100.00,North,350,7.0,22.0,60,0.00,,,-99.99,0.000000,,2013-01-21 08:22:00,
2013-01-20 22:32:00,68.0,54.0,-100.00,North,350,7.0,22.0,60,0.00,,,-99.99,0.000000,,2013-01-21 08:32:00,
2013-01-20 22:53:00,68.0,54.0,-100.00,NNW,335,7.0,21.0,62,0.00,,,0.00,1.000000,,2013-01-21 08:53:00,
2013-01-20 23:02:00,68.0,54.0,-100.00,NNW,335,7.0,21.0,62,0.00,,,0.00,1.000000,,2013-01-21 09:02:00,
2013-01-20 23:12:00,68.0,54.0,-100.00,NNW,335,7.0,21.0,62,0.00,,,0.00,1.000000,,2013-01-21 09:12:00,
2013-01-20 23:22:00,68.0,54.0,-100.00,NNW,335,7.0,21.0,62,0.00,,,0.00,1.000000,,2013-01-21 09:22:00,
2013-01-20 23:32:00,68.0,54.0,-100.00,NNW,335,7.0,21.0,62,0.00,,,0.00,1.000000,,2013-01-21 09:32:00,
2013-01-20 23:53:00,69.0,55.0,-100.00,North,357,6.0,19.0,62,0.00,,,0.00,1.000000,,2013-01-21 09:53:00,